Time,TemperatureF,DewpointF,PressureIn,WindDirection,WindDirectionDegrees,WindSpeedMPH,WindSpeedGustMPH,Humidity,HourlyPrecipIn,Conditions,Clouds,dailyrainin,SoftwareType,DateUTC
2013-10-21 00:00:00,42.8,38.0,30.06,NW,306,0.0,0.0,83,0.00,,---,0.01,VWS V14.01,2013-10-21 04:00:00,
2013-10-21 00:01:00,42.7,37.9,30.06,NW,306,0.0,0.0,83,0.00,,---,0.00,VWS V14.01,2013-10-21 04:01:00,
2013-10-21 00:02:00,42.7,37.9,30.06,NW,306,0.0,0.0,83,0.00,,---,0.00,VWS V14.01,2013-10-21 04:02:00,
2013-10-21 00:03:00,42.7,37.9,30.06,NW,306,0.0,0.0,83,0.00,,---,0.00,VWS V14.01,2013-10-21 04:03:00,
2013-10-21 00:04:00,42.7,37.9,30.06,NW,306,0.0,0.0,83,0.00,,---,0.00,VWS V14.01,2013-10-21 04:04:00,
2013-10-21 00:07:00,42.5,37.7,30.06,NW,306,0.0,0.0,83,0.00,,---,0.00,VWS V14.01,2013-10-21 04:07:00,
2013-10-21 00:12:00,42.4,37.6,30.06,NW,306,0.0,0.0,83,0.00,,---,0.00,VWS V14.01,2013-10-21 04:12:00,
2013-10-21 00:15:00,42.2,37.7,30.06,NW,306,0.0,0.0,84,0.00,,---,0.00,VWS V14.01,2013-10-21 04:15:00,
2013-10-21 00:17:00,42.2,37.7,30.06,NW,306,0.0,0.0,84,0.00,,---,0.00,VWS V14.01,2013-10-21 04:17:00,
2013-10-21 00:22:00,42.0,37.8,30.06,NW,306,0.0,0.0,85,0.00,,---,0.00,VWS V14.01,2013-10-21 04:22:00,
2013-10-21 00:27:00,41.9,37.7,30.06,NW,306,0.0,0.0,85,0.00,,---,0.00,VWS V14.01,2013-10-21 04:27:00,
2013-10-21 00:30:00,41.9,37.7,30.06,NW,306,0.0,0.0,85,0.00,,---,0.00,VWS V14.01,2013-10-21 04:30:00,
2013-10-21 00:32:00,41.9,37.7,30.07,NW,306,0.0,0.0,85,0.00,,---,0.00,VWS V14.01,2013-10-21 04:32:00,
2013-10-21 00:37:00,42.0,37.8,30.06,NW,306,0.0,0.0,85,0.00,,---,0.00,VWS V14.01,2013-10-21 04:37:00,
2013-10-21 00:42:00,42.0,37.8,30.06,NW,306,0.0,0.0,85,0.00,,---,0.00,VWS V14.01,2013-10-21 04:42:00,
2013-10-21 00:45:00,41.9,37.7,30.07,NW,306,0.0,0.0,85,0.00,,---,0.00,VWS V14.01,2013-10-21 04:45:00,
2013-10-21 00:47:00,41.9,37.7,30.06,NW,306,0.0,0.0,85,0.00,,---,0.00,VWS V14.01,2013-10-21 04:47:00,
2013-10-21 00:52:00,41.7,37.5,30.06,NW,306,0.0,0.0,85,0.00,,---,0.00,VWS V14.01,2013-10-21 04:52:00,
2013-10-21 00:57:00,41.8,37.9,30.06,NW,306,0.0,0.0,86,0.00,,---,0.00,VWS V14.01,2013-10-21 04:57:00,
2013-10-21 01:00:00,41.8,37.9,30.07,NW,306,0.0,0.0,86,0.00,,---,0.00,VWS V14.01,2013-10-21 05:00:00,
2013-10-21 01:02:00,41.9,38.0,30.07,NW,306,0.0,0.0,86,0.00,,---,0.00,VWS V14.01,2013-10-21 05:02:00,
2013-10-21 01:07:00,42.0,38.1,30.07,NW,306,0.0,0.0,86,0.00,,---,0.00,VWS V14.01,2013-10-21 05:07:00,
2013-10-21 01:12:00,42.0,37.8,30.07,NW,306,0.0,0.0,85,0.00,,---,0.00,VWS V14.01,2013-10-21 05:12:00,
2013-10-21 01:15:00,42.0,37.8,30.07,NW,306,0.0,0.0,85,0.00,,---,0.00,VWS V14.01,2013-10-21 05:15:00,
2013-10-21 01:17:00,41.9,37.7,30.07,NW,306,0.0,0.0,85,0.00,,---,0.00,VWS V14.01,2013-10-21 05:17:00,
2013-10-21 01:22:00,41.8,37.6,30.07,NW,306,0.0,0.0,85,0.00,,---,0.00,VWS V14.01,2013-10-21 05:22:00,
2013-10-21 01:27:00,41.7,37.8,30.07,NW,306,0.0,0.0,86,0.00,,---,0.00,VWS V14.01,2013-10-21 05:27:00,
2013-10-21 01:30:00,41.7,37.8,30.07,NW,306,0.0,0.0,86,0.00,,---,0.00,VWS V14.01,2013-10-21 05:30:00,
2013-10-21 01:32:00,41.7,37.8,30.07,NW,306,0.0,0.0,86,0.00,,---,0.00,VWS V14.01,2013-10-21 05:32:00,
2013-10-21 01:37:00,41.6,37.7,30.07,NW,306,0.0,0.0,86,0.00,,---,0.00,VWS V14.01,2013-10-21 05:37:00,
2013-10-21 01:42:00,41.5,37.9,30.07,NW,306,0.0,0.0,87,0.00,,---,0.00,VWS V14.01,2013-10-21 05:42:00,
2013-10-21 01:45:00,41.6,38.0,30.07,NW,306,0.0,0.0,87,0.00,,---,0.00,VWS V14.01,2013-10-21 05:45:00,
2013-10-21 01:47:00,41.6,38.0,30.07,NW,306,0.0,0.0,87,0.00,,---,0.00,VWS V14.01,2013-10-21 05:47:00,
2013-10-21 01:52:00,41.6,38.0,30.07,NW,306,0.0,0.0,87,0.00,,---,0.00,VWS V14.01,2013-10-21 05:52:00,
2013-10-21 01:57:00,41.5,37.9,30.08,NW,306,0.0,0.0,87,0.00,,---,0.00,VWS V14.01,2013-10-21 05:57:00,
2013-10-21 02:00:00,41.5,37.9,30.08,NW,306,0.0,0.0,87,0.00,,---,0.00,VWS V14.01,2013-10-21 06:00:00,
2013-10-21 02:03:00,41.4,37.8,30.08,NW,306,0.0,0.0,87,0.00,,---,0.00,VWS V14.01,2013-10-21 06:03:00,
2013-10-21 02:08:00,41.3,38.0,30.08,NW,306,0.0,0.0,88,0.00,,---,0.00,VWS V14.01,2013-10-21 06:08:00,
2013-10-21 02:13:00,41.3,37.7,30.08,NW,306,0.0,0.0,87,0.00,,---,0.00,VWS V14.01,2013-10-21 06:13:00,
2013-10-21 02:15:00,41.2,37.6,30.08,NW,306,0.0,0.0,87,0.00,,---,0.00,VWS V14.01,2013-10-21 06:15:00,
2013-10-21 02:18:00,41.0,37.4,30.08,NW,306,0.0,0.0,87,0.00,,---,0.00,VWS V14.01,2013-10-21 06:18:00,
2013-10-21 02:23:00,40.8,37.5,30.08,NW,306,0.0,0.0,88,0.00,,---,0.00,VWS V14.01,2013-10-21 06:23:00,
2013-10-21 02:28:00,40.6,37.3,30.08,NW,306,0.0,0.0,88,0.00,,---,0.00,VWS V14.01,2013-10-21 06:28:00,
2013-10-21 02:30:00,40.6,37.6,30.08,NW,306,0.0,0.0,89,0.00,,---,0.00,VWS V14.01,2013-10-21 06:30:00,
2013-10-21 02:33:00,40.5,37.5,30.08,NW,306,0.0,0.0,89,0.00,,---,0.00,VWS V14.01,2013-10-21 06:33:00,
2013-10-21 02:38:00,40.4,37.4,30.08,NW,306,0.0,0.0,89,0.00,,---,0.00,VWS V14.01,2013-10-21 06:38:00,
2013-10-21 02:43:00,40.3,37.6,30.08,NW,306,0.0,0.0,90,0.00,,---,0.00,VWS V14.01,2013-10-21 06:43:00,
2013-10-21 02:45:00,40.3,37.6,30.08,NW,306,0.0,0.0,90,0.00,,---,0.00,VWS V14.01,2013-10-21 06:45:00,
2013-10-21 02:48:00,40.3,37.6,30.08,NW,306,0.0,0.0,90,0.00,,---,0.00,VWS V14.01,2013-10-21 06:48:00,
2013-10-21 02:53:00,40.2,37.5,30.08,NW,306,0.0,0.0,90,0.00,,---,0.00,VWS V14.01,2013-10-21 06:53:00,
2013-10-21 02:58:00,40.1,37.4,30.08,NW,306,0.0,0.0,90,0.00,,---,0.00,VWS V14.01,2013-10-21 06:58:00,
2013-10-21 03:00:00,40.0,37.3,30.08,NW,306,0.0,0.0,90,0.00,,---,0.00,VWS V14.01,2013-10-21 07:00:00,
2013-10-21 03:03:00,40.0,37.3,30.08,NW,306,0.0,0.0,90,0.00,,---,0.00,VWS V14.01,2013-10-21 07:03:00,
2013-10-21 03:08:00,40.0,37.6,30.08,NW,306,0.0,0.0,91,0.00,,---,0.00,VWS V14.01,2013-10-21 07:08:00,
2013-10-21 03:13:00,40.2,37.5,30.08,NW,306,0.0,0.0,90,0.00,,---,0.00,VWS V14.01,2013-10-21 07:13:00,
2013-10-21 03:15:00,40.3,37.6,30.08,NW,306,0.0,0.0,90,0.00,,---,0.00,VWS V14.01,2013-10-21 07:15:00,
2013-10-21 03:18:00,40.4,37.7,30.08,NW,306,0.0,0.0,90,0.00,,---,0.00,VWS V14.01,2013-10-21 07:18:00,
2013-10-21 03:23:00,40.3,37.6,30.08,NW,306,0.0,0.0,90,0.00,,---,0.00,VWS V14.01,2013-10-21 07:23:00,
2013-10-21 03:28:00,40.3,37.6,30.08,NW,306,0.0,0.0,90,0.00,,---,0.00,VWS V14.01,2013-10-21 07:28:00,
2013-10-21 03:30:00,40.3,37.6,30.08,NW,306,0.0,0.0,90,0.00,,---,0.00,VWS V14.01,2013-10-21 07:30:00,
2013-10-21 03:33:00,40.2,37.5,30.08,NW,306,0.0,0.0,90,0.00,,---,0.00,VWS V14.01,2013-10-21 07:33:00,
2013-10-21 03:38:00,40.2,37.5,30.09,NW,306,0.0,0.0,90,0.00,,---,0.00,VWS V14.01,2013-10-21 07:38:00,
2013-10-21 03:43:00,40.0,37.0,30.09,NW,306,0.0,0.0,89,0.00,,---,0.00,VWS V14.01,2013-10-21 07:43:00,
2013-10-21 03:45:00,39.9,37.2,30.09,NW,306,0.0,0.0,90,0.00,,---,0.00,VWS V14.01,2013-10-21 07:45:00,
2013-10-21 03:48:00,39.8,37.1,30.09,NW,306,0.0,0.0,90,0.00,,---,0.00,VWS V14.01,2013-10-21 07:48:00,
2013-10-21 03:53:00,39.6,36.9,30.09,NW,306,0.0,0.0,90,0.00,,---,0.00,VWS V14.01,2013-10-21 07:53:00,
2013-10-21 03:58:00,39.5,37.1,30.09,NW,306,0.0,0.0,91,0.00,,---,0.00,VWS V14.01,2013-10-21 07:58:00,
2013-10-21 04:00:00,39.6,37.2,30.09,NW,306,0.0,0.0,91,0.00,,---,0.00,VWS V14.01,2013-10-21 08:00:00,
2013-10-21 04:03:00,39.6,37.2,30.09,NW,306,0.0,0.0,91,0.00,,---,0.00,VWS V14.01,2013-10-21 08:03:00,
2013-10-21 04:08:00,39.7,37.3,30.09,NW,306,0.0,0.0,91,0.00,,---,0.00,VWS V14.01,2013-10-21 08:08:00,
2013-10-21 04:13:00,39.8,37.4,30.09,NW,306,0.0,0.0,91,0.00,,---,0.00,VWS V14.01,2013-10-21 08:13:00,
2013-10-21 04:15:00,39.8,37.4,30.09,NW,306,0.0,0.0,91,0.00,,---,0.00,VWS V14.01,2013-10-21 08:15:00,
2013-10-21 04:18:00,39.8,37.1,30.09,NW,306,0.0,0.0,90,0.00,,---,0.00,VWS V14.01,2013-10-21 08:18:00,
2013-10-21 04:23:00,39.8,37.1,30.09,NW,306,0.0,0.0,90,0.00,,---,0.00,VWS V14.01,2013-10-21 08:23:00,
2013-10-21 04:29:00,39.7,37.0,30.09,NW,306,0.0,0.0,90,0.00,,---,0.00,VWS V14.01,2013-10-21 08:29:00,
2013-10-21 04:30:00,39.7,37.0,30.09,NW,306,0.0,0.0,90,0.00,,---,0.00,VWS V14.01,2013-10-21 08:30:00,
2013-10-21 04:34:00,39.6,36.9,30.10,NW,306,0.0,0.0,90,0.00,,---,0.00,VWS V14.01,2013-10-21 08:34:00,
2013-10-21 04:39:00,39.6,37.2,30.09,NW,306,0.0,0.0,91,0.00,,---,0.00,VWS V14.01,2013-10-21 08:39:00,
2013-10-21 04:44:00,39.7,37.0,30.10,NW,306,0.0,0.0,90,0.00,,---,0.00,VWS V14.01,2013-10-21 08:44:00,
2013-10-21 04:45:00,39.7,37.3,30.10,NW,306,0.0,0.0,91,0.00,,---,0.00,VWS V14.01,2013-10-21 08:45:00,
2013-10-21 04:49:00,39.7,37.0,30.10,NW,306,0.0,0.0,90,0.00,,---,0.00,VWS V14.01,2013-10-21 08:49:00,
2013-10-21 04:54:00,39.8,37.1,30.10,NW,306,0.0,0.0,90,0.00,,---,0.00,VWS V14.01,2013-10-21 08:54:00,
2013-10-21 04:59:00,39.8,37.1,30.10,NW,306,0.0,0.0,90,0.00,,---,0.00,VWS V14.01,2013-10-21 08:59:00,
2013-10-21 05:00:00,39.8,37.1,30.10,NW,306,0.0,0.0,90,0.00,,---,0.00,VWS V14.01,2013-10-21 09:00:00,
2013-10-21 05:04:00,39.8,37.1,30.10,NW,306,0.0,0.0,90,0.00,,---,0.00,VWS V14.01,2013-10-21 09:04:00,
2013-10-21 05:09:00,39.8,37.1,30.10,NW,306,0.0,0.0,90,0.00,,---,0.00,VWS V14.01,2013-10-21 09:09:00,
2013-10-21 05:14:00,39.8,37.1,30.10,NW,306,0.0,0.0,90,0.00,,---,0.00,VWS V14.01,2013-10-21 09:14:00,
2013-10-21 05:15:00,39.8,37.1,30.10,NW,306,0.0,0.0,90,0.00,,---,0.00,VWS V14.01,2013-10-21 09:15:00,
2013-10-21 05:19:00,39.7,37.0,30.10,NW,306,0.0,0.0,90,0.00,,---,0.00,VWS V14.01,2013-10-21 09:19:00,
2013-10-21 05:24:00,39.8,37.1,30.10,NW,306,0.0,0.0,90,0.00,,---,0.00,VWS V14.01,2013-10-21 09:24:00,
2013-10-21 05:29:00,39.9,37.2,30.10,NW,306,0.0,0.0,90,0.00,,---,0.00,VWS V14.01,2013-10-21 09:29:00,
2013-10-21 05:30:00,40.0,37.3,30.10,NW,306,0.0,0.0,90,0.00,,---,0.00,VWS V14.01,2013-10-21 09:30:00,
2013-10-21 05:34:00,40.0,37.3,30.11,NW,306,0.0,0.0,90,0.00,,---,0.00,VWS V14.01,2013-10-21 09:34:00,
2013-10-21 05:39:00,40.1,37.4,30.11,NW,306,0.0,0.0,90,0.00,,---,0.00,VWS V14.01,2013-10-21 09:39:00,
2013-10-21 05:44:00,40.2,37.5,30.11,NW,306,0.0,0.0,90,0.00,,---,0.00,VWS V14.01,2013-10-21 09:44:00,
2013-10-21 05:45:00,40.2,37.5,30.11,NW,306,0.0,0.0,90,0.00,,---,0.00,VWS V14.01,2013-10-21 09:45:00,
2013-10-21 05:49:00,40.2,37.5,30.11,NW,306,0.0,0.0,90,0.00,,---,0.00,VWS V14.01,2013-10-21 09:49:00,
2013-10-21 05:54:00,40.2,37.2,30.11,NW,306,0.0,0.0,89,0.00,,---,0.00,VWS V14.01,2013-10-21 09:54:00,
2013-10-21 05:59:00,40.2,37.5,30.11,NW,306,0.0,0.0,90,0.00,,---,0.00,VWS V14.01,2013-10-21 09:59:00,
2013-10-21 06:00:00,40.2,37.5,30.11,NW,306,0.0,0.0,90,0.00,,---,0.00,VWS V14.01,2013-10-21 10:00:00,
2013-10-21 06:04:00,40.2,37.5,30.11,NW,306,0.0,0.0,90,0.00,,---,0.00,VWS V14.01,2013-10-21 10:04:00,
2013-10-21 06:09:00,40.2,37.2,30.11,NW,306,0.0,0.0,89,0.00,,---,0.00,VWS V14.01,2013-10-21 10:09:00,
2013-10-21 06:14:00,40.2,37.2,30.11,NW,306,0.0,0.0,89,0.00,,---,0.00,VWS V14.01,2013-10-21 10:14:00,
2013-10-21 06:15:00,40.2,37.5,30.11,NW,306,0.0,0.0,90,0.00,,---,0.00,VWS V14.01,2013-10-21 10:15:00,
2013-10-21 06:19:00,40.2,37.2,30.11,NW,306,0.0,0.0,89,0.00,,---,0.00,VWS V14.01,2013-10-21 10:19:00,
2013-10-21 06:25:00,40.1,37.1,30.11,NW,306,0.0,0.0,89,0.00,,---,0.00,VWS V14.01,2013-10-21 10:25:00,
2013-10-21 06:30:00,40.0,37.0,30.11,NW,306,0.0,0.0,89,0.00,,---,0.00,VWS V14.01,2013-10-21 10:30:00,
2013-10-21 06:35:00,39.8,36.8,30.12,NW,306,0.0,0.0,89,0.00,,---,0.00,VWS V14.01,2013-10-21 10:35:00,
2013-10-21 06:40:00,39.7,37.0,30.12,NW,306,0.0,0.0,90,0.00,,---,0.00,VWS V14.01,2013-10-21 10:40:00,
2013-10-21 06:45:00,39.8,37.1,30.12,NW,306,0.0,0.0,90,0.00,,---,0.00,VWS V14.01,2013-10-21 10:45:00,
2013-10-21 06:50:00,39.9,37.2,30.12,NW,306,0.0,0.0,90,0.00,,---,0.00,VWS V14.01,2013-10-21 10:50:00,
2013-10-21 06:55:00,39.9,37.2,30.12,NW,306,0.0,0.0,90,0.00,,---,0.00,VWS V14.01,2013-10-21 10:55:00,
2013-10-21 07:00:00,40.0,37.3,30.12,NW,306,0.0,0.0,90,0.00,,---,0.00,VWS V14.01,2013-10-21 11:00:00,
2013-10-21 07:05:00,40.0,37.3,30.12,NW,306,0.0,0.0,90,0.00,,---,0.00,VWS V14.01,2013-10-21 11:05:00,
2013-10-21 07:10:00,40.1,37.4,30.12,NW,306,0.0,0.0,90,0.00,,---,0.00,VWS V14.01,2013-10-21 11:10:00,
2013-10-21 07:15:00,40.0,37.3,30.12,NW,306,0.0,0.0,90,0.00,,---,0.00,VWS V14.01,2013-10-21 11:15:00,
2013-10-21 07:20:00,40.0,37.3,30.12,NW,306,0.0,0.0,90,0.00,,---,0.00,VWS V14.01,2013-10-21 11:20:00,
2013-10-21 07:25:00,40.1,37.4,30.12,NW,306,0.0,0.0,90,0.00,,---,0.00,VWS V14.01,2013-10-21 11:25:00,
2013-10-21 07:30:00,40.0,37.3,30.13,NW,306,0.0,0.0,90,0.00,,---,0.00,VWS V14.01,2013-10-21 11:30:00,
2013-10-21 07:35:00,39.8,37.1,30.13,NW,306,0.0,0.0,90,0.00,,---,0.00,VWS V14.01,2013-10-21 11:35:00,
2013-10-21 07:40:00,39.7,37.3,30.13,NW,306,0.0,0.0,91,0.00,,---,0.00,VWS V14.01,2013-10-21 11:40:00,
2013-10-21 07:45:00,39.9,37.5,30.13,NW,306,0.0,0.0,91,0.00,,---,0.00,VWS V14.01,2013-10-21 11:45:00,
2013-10-21 07:50:00,40.2,37.5,30.13,NW,306,0.0,0.0,90,0.00,,---,0.00,VWS V14.01,2013-10-21 11:50:00,
2013-10-21 07:55:00,40.7,38.0,30.13,NW,306,0.0,0.0,90,0.00,,---,0.00,VWS V14.01,2013-10-21 11:55:00,
2013-10-21 08:00:00,41.2,38.2,30.13,NW,306,0.0,0.0,89,0.00,,---,0.00,VWS V14.01,2013-10-21 12:00:00,
2013-10-21 08:05:00,41.6,38.3,30.14,NW,306,0.0,0.0,88,0.00,,---,0.00,VWS V14.01,2013-10-21 12:05:00,
2013-10-21 08:10:00,42.1,38.5,30.14,NW,306,0.0,0.0,87,0.00,,---,0.00,VWS V14.01,2013-10-21 12:10:00,
2013-10-21 08:15:00,42.8,38.6,30.14,NW,306,0.0,0.0,85,0.00,,---,0.00,VWS V14.01,2013-10-21 12:15:00,
2013-10-21 08:20:00,43.2,39.0,30.14,NW,306,0.0,0.0,85,0.00,,---,0.00,VWS V14.01,2013-10-21 12:20:00,
2013-10-21 08:25:00,43.5,39.0,30.14,NW,306,0.0,0.0,84,0.00,,---,0.00,VWS V14.01,2013-10-21 12:25:00,
2013-10-21 08:30:00,43.8,39.3,30.14,NW,306,0.0,0.0,84,0.00,,---,0.00,VWS V14.01,2013-10-21 12:30:00,
2013-10-21 08:35:00,44.3,39.5,30.15,NW,306,0.0,0.0,83,0.00,,---,0.00,VWS V14.01,2013-10-21 12:35:00,
2013-10-21 08:40:00,44.8,40.0,30.15,NW,306,0.0,0.0,83,0.00,,---,0.00,VWS V14.01,2013-10-21 12:40:00,
2013-10-21 08:45:00,45.3,40.1,30.15,NW,306,0.0,0.0,82,0.00,,---,0.00,VWS V14.01,2013-10-21 12:45:00,
2013-10-21 08:50:00,45.8,40.3,30.15,NW,306,0.0,0.0,81,0.00,,---,0.00,VWS V14.01,2013-10-21 12:50:00,
2013-10-21 08:56:00,46.3,40.8,30.15,NW,306,0.0,0.0,81,0.00,,---,0.00,VWS V14.01,2013-10-21 12:56:00,
2013-10-21 09:00:00,46.7,41.2,30.15,NW,306,0.0,0.0,81,0.00,,---,0.00,VWS V14.01,2013-10-21 13:00:00,
2013-10-21 09:01:00,46.8,41.0,30.15,NW,306,0.0,0.0,80,0.00,,---,0.00,VWS V14.01,2013-10-21 13:01:00,
2013-10-21 09:06:00,47.7,41.5,30.15,NW,306,0.0,0.0,79,0.00,,---,0.00,VWS V14.01,2013-10-21 13:06:00,
2013-10-21 09:11:00,48.3,41.4,30.15,NW,306,0.0,1.0,77,0.00,,---,0.00,VWS V14.01,2013-10-21 13:11:00,
2013-10-21 09:15:00,48.8,41.9,30.14,NW,306,0.0,1.0,77,0.00,,---,0.00,VWS V14.01,2013-10-21 13:15:00,
2013-10-21 09:16:00,49.0,42.1,30.14,NW,306,0.0,0.0,77,0.00,,---,0.00,VWS V14.01,2013-10-21 13:16:00,
2013-10-21 09:21:00,49.7,42.1,30.14,NW,306,0.0,0.0,75,0.00,,---,0.00,VWS V14.01,2013-10-21 13:21:00,
2013-10-21 09:26:00,50.5,41.8,30.14,NW,306,2.0,2.0,72,0.00,,---,0.00,VWS V14.01,2013-10-21 13:26:00,
2013-10-21 09:30:00,50.9,41.1,30.14,NW,306,0.0,2.0,69,0.00,,---,0.00,VWS V14.01,2013-10-21 13:30:00,
2013-10-21 09:32:00,51.0,41.2,30.14,NW,306,5.0,5.0,69,0.00,,---,0.00,VWS V14.01,2013-10-21 13:32:00,
2013-10-21 09:37:00,51.4,41.2,30.14,NW,304,3.0,7.0,68,0.00,,---,0.00,VWS V14.01,2013-10-21 13:37:00,
2013-10-21 09:42:00,51.9,42.1,30.14,NW,304,2.0,7.0,69,0.00,,---,0.00,VWS V14.01,2013-10-21 13:42:00,
2013-10-21 09:45:00,52.1,41.5,30.14,NW,304,0.0,7.0,67,0.00,,---,0.00,VWS V14.01,2013-10-21 13:45:00,
2013-10-21 09:47:00,52.3,41.3,30.14,NW,304,0.0,4.0,66,0.00,,---,0.00,VWS V14.01,2013-10-21 13:47:00,
2013-10-21 09:52:00,52.9,41.5,30.14,NW,304,4.0,5.0,65,0.00,,---,0.00,VWS V14.01,2013-10-21 13:52:00,
2013-10-21 09:57:00,53.3,41.5,30.14,NW,304,0.0,5.0,64,0.00,,---,0.00,VWS V14.01,2013-10-21 13:57:00,
2013-10-21 10:00:00,53.5,41.2,30.14,NW,304,0.0,5.0,63,0.00,,---,0.00,VWS V14.01,2013-10-21 14:00:00,
2013-10-21 10:02:00,53.8,41.5,30.14,NW,304,1.0,1.0,63,0.00,,---,0.00,VWS V14.01,2013-10-21 14:02:00,
2013-10-21 10:08:00,54.6,41.9,30.13,NW,304,0.0,2.0,62,0.00,,---,0.00,VWS V14.01,2013-10-21 14:08:00,
2013-10-21 10:13:00,55.3,42.1,30.13,NW,304,0.0,4.0,61,0.00,,---,0.00,VWS V14.01,2013-10-21 14:13:00,
2013-10-21 10:15:00,55.6,42.0,30.13,NW,304,1.0,4.0,60,0.00,,---,0.00,VWS V14.01,2013-10-21 14:15:00,
2013-10-21 10:18:00,55.9,40.9,30.13,WNW,290,3.0,5.0,57,0.00,,---,0.00,VWS V14.01,2013-10-21 14:18:00,
2013-10-21 10:23:00,56.4,40.9,30.13,West,266,0.0,7.0,56,0.00,,---,0.00,VWS V14.01,2013-10-21 14:23:00,
2013-10-21 10:28:00,57.1,41.1,30.13,West,275,0.0,7.0,55,0.00,,---,0.00,VWS V14.01,2013-10-21 14:28:00,
2013-10-21 10:30:00,57.4,41.4,30.13,West,274,0.0,7.0,55,0.00,,---,0.00,VWS V14.01,2013-10-21 14:30:00,
2013-10-21 10:33:00,57.8,40.8,30.13,SW,236,0.0,4.0,53,0.00,,---,0.00,VWS V14.01,2013-10-21 14:33:00,
2013-10-21 10:38:00,58.2,40.7,30.12,West,269,3.0,7.0,52,0.00,,---,0.00,VWS V14.01,2013-10-21 14:38:00,
2013-10-21 10:43:00,58.7,40.6,30.12,SW,231,0.0,7.0,51,0.00,,---,0.00,VWS V14.01,2013-10-21 14:43:00,
2013-10-21 10:45:00,58.9,41.3,30.12,SW,232,0.0,7.0,52,0.00,,---,0.00,VWS V14.01,2013-10-21 14:45:00,
2013-10-21 10:48:00,59.3,41.2,30.12,West,265,4.0,4.0,51,0.00,,---,0.00,VWS V14.01,2013-10-21 14:48:00,
2013-10-21 10:53:00,59.9,40.2,30.12,NW,306,2.0,6.0,48,0.00,,---,0.00,VWS V14.01,2013-10-21 14:53:00,
2013-10-21 10:58:00,60.1,39.8,30.12,SW,233,5.0,7.0,47,0.00,,---,0.00,VWS V14.01,2013-10-21 14:58:00,
2013-10-21 11:00:00,60.1,39.8,30.12,SW,234,5.0,7.0,47,0.00,,---,0.00,VWS V14.01,2013-10-21 15:00:00,
2013-10-21 11:03:00,60.4,40.6,30.12,WSW,246,3.0,5.0,48,0.00,,---,0.00,VWS V14.01,2013-10-21 15:03:00,
2013-10-21 11:08:00,61.3,40.4,30.12,SSE,153,1.0,5.0,46,0.00,,---,0.00,VWS V14.01,2013-10-21 15:08:00,
2013-10-21 11:13:00,61.9,40.3,30.12,SSW,204,3.0,7.0,45,0.00,,---,0.00,VWS V14.01,2013-10-21 15:13:00,
2013-10-21 11:15:00,62.0,39.3,30.12,SSW,192,0.0,7.0,43,0.00,,---,0.00,VWS V14.01,2013-10-21 15:15:00,
2013-10-21 11:18:00,62.2,40.6,30.12,West,267,1.0,2.0,45,0.00,,---,0.00,VWS V14.01,2013-10-21 15:18:00,
2013-10-21 11:23:00,62.4,39.6,30.12,West,265,1.0,7.0,43,0.00,,---,0.00,VWS V14.01,2013-10-21 15:23:00,
2013-10-21 11:28:00,62.9,38.9,30.12,SW,222,2.0,7.0,41,0.00,,---,0.00,VWS V14.01,2013-10-21 15:28:00,
2013-10-21 11:30:00,63.0,39.0,30.12,SW,225,0.0,7.0,41,0.00,,---,0.00,VWS V14.01,2013-10-21 15:30:00,
2013-10-21 11:33:00,63.1,38.4,30.12,SSW,213,3.0,8.0,40,0.00,,---,0.00,VWS V14.01,2013-10-21 15:33:00,
2013-10-21 11:38:00,63.1,37.8,30.11,South,181,0.0,8.0,39,0.00,,---,0.00,VWS V14.01,2013-10-21 15:38:00,
2013-10-21 11:43:00,63.5,36.1,30.11,WSW,249,7.0,11.0,36,0.00,,---,0.00,VWS V14.01,2013-10-21 15:43:00,
2013-10-21 11:45:00,63.3,37.3,30.11,WNW,300,7.0,11.0,38,0.00,,---,0.00,VWS V14.01,2013-10-21 15:45:00,
2013-10-21 11:48:00,63.3,37.3,30.11,WSW,254,1.0,9.0,38,0.00,,---,0.00,VWS V14.01,2013-10-21 15:48:00,
2013-10-21 11:53:00,63.1,37.8,30.11,West,266,9.0,9.0,39,0.00,,---,0.00,VWS V14.01,2013-10-21 15:53:00,
2013-10-21 11:58:00,63.2,37.9,30.11,ESE,117,3.0,9.0,39,0.00,,---,0.00,VWS V14.01,2013-10-21 15:58:00,
2013-10-21 12:00:00,63.4,38.0,30.11,ESE,118,0.0,9.0,39,0.00,,---,0.00,VWS V14.01,2013-10-21 16:00:00,
2013-10-21 12:03:00,64.0,37.2,30.11,SSE,159,2.0,7.0,37,0.00,,---,0.00,VWS V14.01,2013-10-21 16:03:00,
2013-10-21 12:08:00,64.1,38.0,30.11,West,261,8.0,9.0,38,0.00,,---,0.00,VWS V14.01,2013-10-21 16:08:00,
2013-10-21 12:13:00,63.8,38.4,30.10,SW,236,9.0,16.0,39,0.00,,---,0.00,VWS V14.01,2013-10-21 16:13:00,
2013-10-21 12:15:00,63.6,37.5,30.10,South,184,6.0,16.0,38,0.00,,---,0.00,VWS V14.01,2013-10-21 16:15:00,
2013-10-21 12:18:00,63.9,38.5,30.10,WNW,301,2.0,6.0,39,0.00,,---,0.00,VWS V14.01,2013-10-21 16:18:00,
2013-10-21 12:23:00,64.3,38.8,30.10,SW,229,0.0,11.0,39,0.00,,---,0.00,VWS V14.01,2013-10-21 16:23:00,
2013-10-21 12:29:00,65.0,38.1,30.09,SSE,157,6.0,11.0,37,0.00,,---,0.00,VWS V14.01,2013-10-21 16:29:00,
2013-10-21 12:30:00,65.1,38.9,30.09,West,275,8.0,11.0,38,0.00,,---,0.00,VWS V14.01,2013-10-21 16:30:00,
2013-10-21 12:34:00,65.0,38.8,30.09,WNW,284,2.0,8.0,38,0.00,,---,0.00,VWS V14.01,2013-10-21 16:34:00,
2013-10-21 12:39:00,65.0,38.1,30.09,WSW,251,7.0,8.0,37,0.00,,---,0.00,VWS V14.01,2013-10-21 16:39:00,
2013-10-21 12:44:00,65.0,39.5,30.08,WNW,289,5.0,8.0,39,0.00,,---,0.00,VWS V14.01,2013-10-21 16:44:00,
2013-10-21 12:45:00,65.3,39.1,30.08,SW,232,5.0,8.0,38,0.00,,---,0.00,VWS V14.01,2013-10-21 16:45:00,
2013-10-21 12:49:00,65.8,38.8,30.08,SSW,211,5.0,16.0,37,0.00,,---,0.00,VWS V14.01,2013-10-21 16:49:00,
2013-10-21 12:54:00,65.1,38.2,30.08,SSW,197,7.0,16.0,37,0.00,,---,0.00,VWS V14.01,2013-10-21 16:54:00,
2013-10-21 12:59:00,64.8,37.9,30.08,West,263,2.0,16.0,37,0.00,,---,0.00,VWS V14.01,2013-10-21 16:59:00,
2013-10-21 13:00:00,64.8,37.9,30.08,WSW,252,7.0,16.0,37,0.00,,---,0.00,VWS V14.01,2013-10-21 17:00:00,
2013-10-21 13:04:00,65.5,38.6,30.07,WSW,249,15.0,15.0,37,0.00,,---,0.00,VWS V14.01,2013-10-21 17:04:00,
2013-10-21 13:09:00,65.4,37.8,30.07,SW,232,6.0,15.0,36,0.00,,---,0.00,VWS V14.01,2013-10-21 17:09:00,
2013-10-21 13:14:00,65.8,38.8,30.07,SW,216,2.0,15.0,37,0.00,,---,0.00,VWS V14.01,2013-10-21 17:14:00,
2013-10-21 13:15:00,65.9,38.9,30.07,SSW,210,0.0,15.0,37,0.00,,---,0.00,VWS V14.01,2013-10-21 17:15:00,
2013-10-21 13:19:00,66.4,37.9,30.07,West,281,10.0,10.0,35,0.00,,---,0.00,VWS V14.01,2013-10-21 17:19:00,
2013-10-21 13:24:00,66.2,38.5,30.07,SW,225,7.0,13.0,36,0.00,,---,0.00,VWS V14.01,2013-10-21 17:24:00,
2013-10-21 13:29:00,66.3,38.6,30.06,West,271,4.0,13.0,36,0.00,,---,0.00,VWS V14.01,2013-10-21 17:29:00,
2013-10-21 13:30:00,66.2,38.5,30.06,SSW,196,0.0,13.0,36,0.00,,---,0.00,VWS V14.01,2013-10-21 17:30:00,
2013-10-21 13:34:00,66.7,38.9,30.06,SE,139,0.0,6.0,36,0.00,,---,0.00,VWS V14.01,2013-10-21 17:34:00,
2013-10-21 13:39:00,66.6,38.1,30.06,WSW,244,5.0,15.0,35,0.00,,---,0.00,VWS V14.01,2013-10-21 17:39:00,
2013-10-21 13:44:00,66.2,37.8,30.06,SW,230,5.0,15.0,35,0.00,,---,0.00,VWS V14.01,2013-10-21 17:44:00,
2013-10-21 13:45:00,66.2,37.8,30.06,West,271,3.0,15.0,35,0.00,,---,0.00,VWS V14.01,2013-10-21 17:45:00,
2013-10-21 13:49:00,66.4,37.2,30.06,WNW,298,4.0,11.0,34,0.00,,---,0.00,VWS V14.01,2013-10-21 17:49:00,
2013-10-21 13:54:00,66.6,38.1,30.05,West,259,13.0,13.0,35,0.00,,---,0.00,VWS V14.01,2013-10-21 17:54:00,
2013-10-21 13:59:00,66.3,38.6,30.05,NW,311,4.0,13.0,36,0.00,,---,0.00,VWS V14.01,2013-10-21 17:59:00,
2013-10-21 14:00:00,66.3,38.6,30.05,NW,313,6.0,13.0,36,0.00,,---,0.00,VWS V14.01,2013-10-21 18:00:00,
2013-10-21 14:04:00,66.2,38.5,30.05,WSW,254,8.0,15.0,36,0.00,,---,0.00,VWS V14.01,2013-10-21 18:04:00,
2013-10-21 14:09:00,66.4,37.9,30.05,WSW,242,6.0,15.0,35,0.00,,---,0.00,VWS V14.01,2013-10-21 18:09:00,
2013-10-21 14:14:00,66.2,38.5,30.05,WSW,245,10.0,17.0,36,0.00,,---,0.00,VWS V14.01,2013-10-21 18:14:00,
2013-10-21 14:15:00,66.2,38.5,30.05,WSW,248,4.0,17.0,36,0.00,,---,0.00,VWS V14.01,2013-10-21 18:15:00,
2013-10-21 14:19:00,66.2,39.2,30.04,SW,232,4.0,14.0,37,0.00,,---,0.00,VWS V14.01,2013-10-21 18:19:00,
2013-10-21 14:24:00,66.3,38.6,30.04,West,269,2.0,14.0,36,0.00,,---,0.00,VWS V14.01,2013-10-21 18:24:00,
2013-10-21 14:29:00,66.0,39.0,30.04,West,263,4.0,14.0,37,0.00,,---,0.00,VWS V14.01,2013-10-21 18:29:00,
2013-10-21 14:30:00,66.1,39.1,30.04,West,270,0.0,14.0,37,0.00,,---,0.00,VWS V14.01,2013-10-21 18:30:00,
2013-10-21 14:34:00,66.9,39.8,30.04,SW,217,7.0,14.0,37,0.00,,---,0.00,VWS V14.01,2013-10-21 18:34:00,
2013-10-21 14:39:00,66.9,39.8,30.04,SSE,153,5.0,14.0,37,0.00,,---,0.00,VWS V14.01,2013-10-21 18:39:00,
2013-10-21 14:45:00,67.1,39.3,30.04,ESE,117,6.0,14.0,36,0.00,,---,0.00,VWS V14.01,2013-10-21 18:45:00,
2013-10-21 14:50:00,67.2,38.7,30.03,SW,232,2.0,10.0,35,0.00,,---,0.00,VWS V14.01,2013-10-21 18:50:00,
2013-10-21 14:55:00,67.0,38.5,30.03,West,266,7.0,15.0,35,0.00,,---,0.00,VWS V14.01,2013-10-21 18:55:00,
2013-10-21 15:00:00,66.7,38.9,30.03,SW,215,2.0,15.0,36,0.00,,---,0.00,VWS V14.01,2013-10-21 19:00:00,
2013-10-21 15:05:00,67.2,38.7,30.03,SSE,153,0.0,7.0,35,0.00,,---,0.00,VWS V14.01,2013-10-21 19:05:00,
2013-10-21 15:10:00,67.5,38.9,30.03,SSE,168,9.0,10.0,35,0.00,,---,0.00,VWS V14.01,2013-10-21 19:10:00,
2013-10-21 15:15:00,67.1,38.6,30.02,West,262,8.0,12.0,35,0.00,,---,0.00,VWS V14.01,2013-10-21 19:15:00,
2013-10-21 15:20:00,67.2,39.4,30.02,SW,230,4.0,12.0,36,0.00,,---,0.00,VWS V14.01,2013-10-21 19:20:00,
2013-10-21 15:25:00,67.1,37.8,30.02,SSW,203,5.0,12.0,34,0.00,,---,0.00,VWS V14.01,2013-10-21 19:25:00,
2013-10-21 15:30:00,67.2,37.9,30.02,SSE,157,3.0,12.0,34,0.00,,---,0.00,VWS V14.01,2013-10-21 19:30:00,
2013-10-21 15:35:00,67.2,37.9,30.02,South,188,4.0,9.0,34,0.00,,---,0.00,VWS V14.01,2013-10-21 19:35:00,
2013-10-21 15:40:00,67.4,38.1,30.01,SW,227,0.0,10.0,34,0.00,,---,0.00,VWS V14.01,2013-10-21 19:40:00,
2013-10-21 15:45:00,67.4,37.3,30.01,West,271,0.0,10.0,33,0.00,,---,0.00,VWS V14.01,2013-10-21 19:45:00,
2013-10-21 15:50:00,67.0,37.0,30.01,SSE,153,3.0,11.0,33,0.00,,---,0.00,VWS V14.01,2013-10-21 19:50:00,
2013-10-21 15:55:00,67.0,37.0,30.01,SE,134,2.0,11.0,33,0.00,,---,0.00,VWS V14.01,2013-10-21 19:55:00,
2013-10-21 16:00:00,67.1,37.1,30.01,WSW,250,4.0,5.0,33,0.00,,---,0.00,VWS V14.01,2013-10-21 20:00:00,
2013-10-21 16:05:00,66.8,36.8,30.01,West,271,7.0,13.0,33,0.00,,---,0.00,VWS V14.01,2013-10-21 20:05:00,
2013-10-21 16:10:00,66.6,37.4,30.01,WSW,244,4.0,13.0,34,0.00,,---,0.00,VWS V14.01,2013-10-21 20:10:00,
2013-10-21 16:15:00,66.8,37.6,30.01,West,259,6.0,9.0,34,0.00,,---,0.00,VWS V14.01,2013-10-21 20:15:00,
2013-10-21 16:20:00,66.7,37.5,30.01,WSW,258,1.0,12.0,34,0.00,,---,0.00,VWS V14.01,2013-10-21 20:20:00,
2013-10-21 16:25:00,66.8,38.3,30.01,WSW,240,4.0,12.0,35,0.00,,---,0.00,VWS V14.01,2013-10-21 20:25:00,
2013-10-21 16:30:00,66.8,38.3,30.01,WSW,250,7.0,7.0,35,0.00,,---,0.00,VWS V14.01,2013-10-21 20:30:00,
2013-10-21 16:35:00,66.8,39.0,30.01,West,265,1.0,13.0,36,0.00,,---,0.00,VWS V14.01,2013-10-21 20:35:00,
2013-10-21 16:40:00,66.9,38.4,30.01,WSW,243,1.0,13.0,35,0.00,,---,0.00,VWS V14.01,2013-10-21 20:40:00,
2013-10-21 16:45:00,66.6,38.1,30.00,SW,234,9.0,9.0,35,0.00,,---,0.00,VWS V14.01,2013-10-21 20:45:00,
2013-10-21 16:50:00,66.4,37.9,30.00,WSW,247,8.0,11.0,35,0.00,,---,0.00,VWS V14.01,2013-10-21 20:50:00,
2013-10-21 16:55:00,66.3,37.8,30.00,SW,227,0.0,11.0,35,0.00,,---,0.00,VWS V14.01,2013-10-21 20:55:00,
2013-10-21 17:00:00,66.7,39.6,30.00,SW,228,0.0,0.0,37,0.00,,---,0.00,VWS V14.01,2013-10-21 21:00:00,
2013-10-21 17:05:00,66.5,38.8,30.00,West,275,7.0,9.0,36,0.00,,---,0.00,VWS V14.01,2013-10-21 21:05:00,
2013-10-21 17:10:00,66.1,38.4,30.00,SW,222,6.0,11.0,36,0.00,,---,0.00,VWS V14.01,2013-10-21 21:10:00,
2013-10-21 17:15:00,66.0,38.3,30.00,West,263,2.0,11.0,36,0.00,,---,0.00,VWS V14.01,2013-10-21 21:15:00,
2013-10-21 17:16:00,66.1,38.4,30.00,West,263,1.0,2.0,36,0.00,,---,0.00,VWS V14.01,2013-10-21 21:16:00,
2013-10-21 17:21:00,66.0,39.0,30.00,West,275,6.0,8.0,37,0.00,,---,0.00,VWS V14.01,2013-10-21 21:21:00,
2013-10-21 17:26:00,65.9,38.2,30.00,SSW,206,1.0,10.0,36,0.00,,---,0.00,VWS V14.01,2013-10-21 21:26:00,
2013-10-21 17:30:00,66.1,39.1,30.00,SSW,205,0.0,10.0,37,0.00,,---,0.00,VWS V14.01,2013-10-21 21:30:00,
2013-10-21 17:31:00,66.1,39.1,30.00,WSW,239,6.0,8.0,37,0.00,,---,0.00,VWS V14.01,2013-10-21 21:31:00,
2013-10-21 17:36:00,65.9,38.9,30.00,SW,214,0.0,9.0,37,0.00,,---,0.00,VWS V14.01,2013-10-21 21:36:00,
2013-10-21 17:41:00,65.6,38.7,30.00,West,267,6.0,9.0,37,0.00,,---,0.00,VWS V14.01,2013-10-21 21:41:00,
2013-10-21 17:45:00,65.1,38.9,30.00,SW,225,0.0,11.0,38,0.00,,---,0.00,VWS V14.01,2013-10-21 21:45:00,
2013-10-21 17:46:00,65.0,38.8,30.00,SSW,207,2.0,5.0,38,0.00,,---,0.00,VWS V14.01,2013-10-21 21:46:00,
2013-10-21 17:51:00,64.8,38.6,30.00,SW,216,0.0,5.0,38,0.00,,---,0.00,VWS V14.01,2013-10-21 21:51:00,
2013-10-21 17:56:00,64.5,39.0,30.00,South,190,5.0,5.0,39,0.00,,---,0.00,VWS V14.01,2013-10-21 21:56:00,
2013-10-21 18:00:00,64.3,39.5,30.00,SW,215,4.0,10.0,40,0.00,,---,0.00,VWS V14.01,2013-10-21 22:00:00,
2013-10-21 18:01:00,64.2,38.8,30.00,West,274,4.0,7.0,39,0.00,,---,0.00,VWS V14.01,2013-10-21 22:01:00,
2013-10-21 18:06:00,64.0,39.2,30.00,SW,214,0.0,7.0,40,0.00,,---,0.00,VWS V14.01,2013-10-21 22:06:00,
2013-10-21 18:11:00,63.7,39.6,30.00,NW,322,0.0,7.0,41,0.00,,---,0.00,VWS V14.01,2013-10-21 22:11:00,
2013-10-21 18:15:00,63.4,39.3,30.00,WNW,292,0.0,7.0,41,0.00,,---,0.00,VWS V14.01,2013-10-21 22:15:00,
2013-10-21 18:16:00,63.4,39.3,30.00,WNW,292,0.0,0.0,41,0.00,,---,0.00,VWS V14.01,2013-10-21 22:16:00,
2013-10-21 18:21:00,63.0,39.6,30.00,WNW,292,0.0,0.0,42,0.00,,---,0.00,VWS V14.01,2013-10-21 22:21:00,
2013-10-21 18:26:00,62.7,39.9,30.01,WNW,292,0.0,0.0,43,0.00,,---,0.00,VWS V14.01,2013-10-21 22:26:00,
2013-10-21 18:30:00,62.3,39.5,30.01,SSW,209,4.0,11.0,43,0.00,,---,0.00,VWS V14.01,2013-10-21 22:30:00,
2013-10-21 18:31:00,62.3,40.1,30.01,SSE,165,0.0,5.0,44,0.00,,---,0.00,VWS V14.01,2013-10-21 22:31:00,
2013-10-21 18:36:00,62.1,40.5,30.01,SE,146,0.0,13.0,45,0.00,,---,0.00,VWS V14.01,2013-10-21 22:36:00,
2013-10-21 18:41:00,61.8,40.3,30.01,SE,145,2.0,13.0,45,0.00,,---,0.00,VWS V14.01,2013-10-21 22:41:00,
2013-10-21 18:45:00,61.6,40.6,30.01,SSE,148,4.0,13.0,46,0.00,,---,0.00,VWS V14.01,2013-10-21 22:45:00,
2013-10-21 18:46:00,61.6,40.6,30.01,SSE,149,1.0,4.0,46,0.00,,---,0.00,VWS V14.01,2013-10-21 22:46:00,
2013-10-21 18:51:00,61.2,40.8,30.01,SSE,156,7.0,9.0,47,0.00,,---,0.00,VWS V14.01,2013-10-21 22:51:00,
2013-10-21 18:56:00,60.9,41.1,30.02,SSW,193,0.0,14.0,48,0.00,,---,0.00,VWS V14.01,2013-10-21 22:56:00,
2013-10-21 19:00:00,60.6,41.3,30.02,South,186,2.0,14.0,49,0.00,,---,0.00,VWS V14.01,2013-10-21 23:00:00,
2013-10-21 19:01:00,60.5,41.3,30.02,SSE,157,6.0,6.0,49,0.00,,---,0.00,VWS V14.01,2013-10-21 23:01:00,
2013-10-21 19:06:00,60.3,41.1,30.02,South,182,2.0,10.0,49,0.00,,---,0.00,VWS V14.01,2013-10-21 23:06:00,
2013-10-21 19:12:00,60.0,40.8,30.02,South,182,2.0,10.0,49,0.00,,---,0.00,VWS V14.01,2013-10-21 23:12:00,
2013-10-21 19:15:00,59.8,41.1,30.02,SSW,198,0.0,10.0,50,0.00,,---,0.00,VWS V14.01,2013-10-21 23:15:00,
2013-10-21 19:17:00,59.6,41.5,30.02,ESE,121,2.0,5.0,51,0.00,,---,0.00,VWS V14.01,2013-10-21 23:17:00,
2013-10-21 19:22:00,59.4,41.3,30.03,SW,236,9.0,9.0,51,0.00,,---,0.00,VWS V14.01,2013-10-21 23:22:00,
2013-10-21 19:27:00,59.2,41.6,30.03,WSW,242,6.0,12.0,52,0.00,,---,0.00,VWS V14.01,2013-10-21 23:27:00,
2013-10-21 19:30:00,59.1,41.5,30.02,SE,129,5.0,12.0,52,0.00,,---,0.00,VWS V14.01,2013-10-21 23:30:00,
2013-10-21 19:32:00,59.0,41.4,30.02,SW,217,0.0,11.0,52,0.00,,---,0.00,VWS V14.01,2013-10-21 23:32:00,
2013-10-21 19:37:00,58.8,41.7,30.02,SW,225,3.0,11.0,53,0.00,,---,0.00,VWS V14.01,2013-10-21 23:37:00,
2013-10-21 19:42:00,58.6,42.0,30.02,South,178,4.0,11.0,54,0.00,,---,0.00,VWS V14.01,2013-10-21 23:42:00,
2013-10-21 19:45:00,58.5,42.4,30.02,SSE,167,0.0,11.0,55,0.00,,---,0.00,VWS V14.01,2013-10-21 23:45:00,
2013-10-21 19:47:00,58.4,42.3,30.02,East,80,7.0,8.0,55,0.00,,---,0.00,VWS V14.01,2013-10-21 23:47:00,
2013-10-21 19:52:00,58.1,42.5,30.02,South,171,5.0,8.0,56,0.00,,---,0.00,VWS V14.01,2013-10-21 23:52:00,
2013-10-21 19:57:00,57.9,42.8,30.03,SSW,200,1.0,8.0,57,0.00,,---,0.00,VWS V14.01,2013-10-21 23:57:00,
2013-10-21 20:00:00,57.8,42.7,30.03,SSW,193,2.0,8.0,57,0.00,,---,0.00,VWS V14.01,2013-10-22 00:00:00,
2013-10-21 20:03:00,57.7,43.0,30.03,SSW,208,0.0,7.0,58,0.00,,---,0.00,VWS V14.01,2013-10-22 00:03:00,
2013-10-21 20:08:00,57.4,43.2,30.03,SSW,213,1.0,7.0,59,0.00,,---,0.00,VWS V14.01,2013-10-22 00:08:00,
2013-10-21 20:13:00,57.2,43.5,30.03,SE,133,3.0,7.0,60,0.00,,---,0.00,VWS V14.01,2013-10-22 00:13:00,
2013-10-21 20:15:00,57.2,43.5,30.02,WSW,245,2.0,7.0,60,0.00,,---,0.00,VWS V14.01,2013-10-22 00:15:00,
2013-10-21 20:18:00,57.1,43.4,30.02,SSE,157,0.0,4.0,60,0.00,,---,0.00,VWS V14.01,2013-10-22 00:18:00,
2013-10-21 20:23:00,56.9,43.6,30.02,South,184,0.0,7.0,61,0.00,,---,0.00,VWS V14.01,2013-10-22 00:23:00,
2013-10-21 20:28:00,56.6,43.8,30.02,SW,222,3.0,7.0,62,0.00,,---,0.00,VWS V14.01,2013-10-22 00:28:00,
2013-10-21 20:30:00,56.6,43.8,30.02,South,186,0.0,7.0,62,0.00,,---,0.00,VWS V14.01,2013-10-22 00:30:00,
2013-10-21 20:33:00,56.5,44.1,30.02,South,184,0.0,2.0,63,0.00,,---,0.00,VWS V14.01,2013-10-22 00:33:00,
2013-10-21 20:38:00,56.4,44.0,30.02,SSE,162,2.0,9.0,63,0.00,,---,0.00,VWS V14.01,2013-10-22 00:38:00,
2013-10-21 20:43:00,56.3,43.9,30.02,SSE,159,0.0,9.0,63,0.00,,---,0.00,VWS V14.01,2013-10-22 00:43:00,
2013-10-21 20:45:00,56.3,44.3,30.02,South,171,0.0,9.0,64,0.00,,---,0.00,VWS V14.01,2013-10-22 00:45:00,
2013-10-21 20:48:00,56.2,44.2,30.02,SSE,156,0.0,6.0,64,0.00,,---,0.00,VWS V14.01,2013-10-22 00:48:00,
2013-10-21 20:53:00,56.0,44.4,30.02,SW,217,0.0,6.0,65,0.00,,---,0.00,VWS V14.01,2013-10-22 00:53:00,
2013-10-21 20:58:00,55.8,44.2,30.02,SSE,159,0.0,6.0,65,0.00,,---,0.00,VWS V14.01,2013-10-22 00:58:00,
2013-10-21 21:00:00,55.7,44.5,30.01,SSE,159,0.0,6.0,66,0.00,,---,0.00,VWS V14.01,2013-10-22 01:00:00,
2013-10-21 21:03:00,55.6,44.4,30.01,South,190,0.0,1.0,66,0.00,,---,0.00,VWS V14.01,2013-10-22 01:03:00,
2013-10-21 21:08:00,55.4,44.6,30.02,SSW,194,0.0,2.0,67,0.00,,---,0.00,VWS V14.01,2013-10-22 01:08:00,
2013-10-21 21:13:00,55.3,44.9,30.02,SE,134,0.0,5.0,68,0.00,,---,0.00,VWS V14.01,2013-10-22 01:13:00,
2013-10-21 21:15:00,55.3,44.9,30.02,SE,137,0.0,5.0,68,0.00,,---,0.00,VWS V14.01,2013-10-22 01:15:00,
2013-10-21 21:18:00,55.2,44.8,30.02,South,169,0.0,4.0,68,0.00,,---,0.00,VWS V14.01,2013-10-22 01:18:00,
2013-10-21 21:23:00,55.2,45.2,30.02,SSW,196,3.0,8.0,69,0.00,,---,0.00,VWS V14.01,2013-10-22 01:23:00,
2013-10-21 21:28:00,55.1,45.1,30.02,South,190,6.0,8.0,69,0.00,,---,0.00,VWS V14.01,2013-10-22 01:28:00,
2013-10-21 21:30:00,55.1,45.1,30.02,SSE,150,3.0,8.0,69,0.00,,---,0.00,VWS V14.01,2013-10-22 01:30:00,
2013-10-21 21:33:00,55.1,45.1,30.02,SSE,160,0.0,5.0,69,0.00,,---,0.00,VWS V14.01,2013-10-22 01:33:00,
2013-10-21 21:38:00,55.0,45.4,30.02,SSW,193,0.0,9.0,70,0.00,,---,0.00,VWS V14.01,2013-10-22 01:38:00,
2013-10-21 21:43:00,54.9,45.3,30.02,SSW,207,0.0,9.0,70,0.00,,---,0.00,VWS V14.01,2013-10-22 01:43:00,
2013-10-21 21:45:00,54.8,45.2,30.02,SSW,206,0.0,9.0,70,0.00,,---,0.00,VWS V14.01,2013-10-22 01:45:00,
2013-10-21 21:48:00,54.8,45.2,30.02,SSW,207,0.0,3.0,70,0.00,,---,0.00,VWS V14.01,2013-10-22 01:48:00,
2013-10-21 21:53:00,54.6,45.0,30.01,WSW,253,0.0,4.0,70,0.00,,---,0.00,VWS V14.01,2013-10-22 01:53:00,
2013-10-21 21:55:00,54.6,45.4,30.01,WSW,253,0.0,4.0,71,0.00,,---,0.00,VWS V14.01,2013-10-22 01:55:00,
2013-10-21 22:00:00,54.4,45.2,30.01,WSW,250,0.0,1.0,71,0.00,,---,0.00,VWS V14.01,2013-10-22 02:00:00,
2013-10-21 22:06:00,54.2,45.0,30.01,SW,221,0.0,2.0,71,0.00,,---,0.00,VWS V14.01,2013-10-22 02:06:00,
2013-10-21 22:11:00,54.0,45.2,30.01,SW,221,0.0,2.0,72,0.00,,---,0.00,VWS V14.01,2013-10-22 02:11:00,
2013-10-21 22:15:00,53.9,45.1,30.00,SW,221,0.0,2.0,72,0.00,,---,0.00,VWS V14.01,2013-10-22 02:15:00,
2013-10-21 22:16:00,53.9,45.1,30.00,SW,221,0.0,0.0,72,0.00,,---,0.00,VWS V14.01,2013-10-22 02:16:00,
2013-10-21 22:21:00,53.6,45.2,30.00,SW,221,0.0,0.0,73,0.00,,---,0.00,VWS V14.01,2013-10-22 02:21:00,
2013-10-21 22:26:00,53.4,45.0,30.00,SW,221,0.0,0.0,73,0.00,,---,0.00,VWS V14.01,2013-10-22 02:26:00,
2013-10-21 22:30:00,53.2,44.8,30.00,SW,219,0.0,2.0,73,0.00,,---,0.00,VWS V14.01,2013-10-22 02:30:00,
2013-10-21 22:31:00,53.2,44.8,29.99,SW,219,0.0,0.0,73,0.00,,---,0.00,VWS V14.01,2013-10-22 02:31:00,
2013-10-21 22:36:00,53.2,45.1,30.00,SW,219,0.0,1.0,74,0.00,,---,0.00,VWS V14.01,2013-10-22 02:36:00,
2013-10-21 22:41:00,53.1,45.0,30.00,SW,219,0.0,1.0,74,0.00,,---,0.00,VWS V14.01,2013-10-22 02:41:00,
2013-10-21 22:45:00,53.0,45.0,30.00,SE,140,0.0,3.0,74,0.00,,---,0.00,VWS V14.01,2013-10-22 02:45:00,
2013-10-21 22:46:00,53.0,45.0,30.00,SE,140,0.0,0.0,74,0.00,,---,0.00,VWS V14.01,2013-10-22 02:46:00,
2013-10-21 22:51:00,52.8,44.8,30.00,SE,140,0.0,0.0,74,0.00,,---,0.00,VWS V14.01,2013-10-22 02:51:00,
2013-10-21 22:56:00,52.6,44.9,29.99,SE,139,0.0,1.0,75,0.00,,---,0.00,VWS V14.01,2013-10-22 02:56:00,
2013-10-21 23:00:00,52.5,44.8,29.99,SE,139,0.0,1.0,75,0.00,,---,0.00,VWS V14.01,2013-10-22 03:00:00,
2013-10-21 23:01:00,52.5,44.8,29.99,SE,139,0.0,0.0,75,0.00,,---,0.00,VWS V14.01,2013-10-22 03:01:00,
2013-10-21 23:06:00,52.3,45.0,29.99,SE,141,0.0,0.0,76,0.00,,---,0.00,VWS V14.01,2013-10-22 03:06:00,
2013-10-21 23:11:00,52.2,44.9,29.99,SE,144,0.0,3.0,76,0.00,,---,0.00,VWS V14.01,2013-10-22 03:11:00,
2013-10-21 23:15:00,52.1,45.1,29.98,SE,144,0.0,3.0,77,0.00,,---,0.00,VWS V14.01,2013-10-22 03:15:00,
2013-10-21 23:16:00,52.1,44.8,29.98,SE,144,0.0,0.0,76,0.00,,---,0.00,VWS V14.01,2013-10-22 03:16:00,
2013-10-21 23:21:00,51.9,44.9,29.98,SE,144,0.0,0.0,77,0.00,,---,0.00,VWS V14.01,2013-10-22 03:21:00,
2013-10-21 23:26:00,51.8,44.8,29.98,SE,144,0.0,0.0,77,0.00,,---,0.00,VWS V14.01,2013-10-22 03:26:00,
2013-10-21 23:30:00,51.6,45.0,29.98,SE,144,0.0,1.0,78,0.00,,---,0.00,VWS V14.01,2013-10-22 03:30:00,
2013-10-21 23:31:00,51.6,45.0,29.98,SE,144,0.0,0.0,78,0.00,,---,0.00,VWS V14.01,2013-10-22 03:31:00,
2013-10-21 23:36:00,51.5,44.9,29.98,SE,145,0.0,0.0,78,0.00,,---,0.00,VWS V14.01,2013-10-22 03:36:00,
2013-10-21 23:41:00,51.5,44.9,29.98,SE,145,0.0,0.0,78,0.00,,---,0.00,VWS V14.01,2013-10-22 03:41:00,
2013-10-21 23:45:00,51.4,44.8,29.98,SE,145,0.0,0.0,78,0.00,,---,0.00,VWS V14.01,2013-10-22 03:45:00,
2013-10-21 23:46:00,51.4,45.1,29.98,SE,144,0.0,0.0,79,0.00,,---,0.00,VWS V14.01,2013-10-22 03:46:00,
2013-10-21 23:51:00,51.4,45.1,29.98,SE,145,0.0,0.0,79,0.00,,---,0.00,VWS V14.01,2013-10-22 03:51:00,
2013-10-21 23:56:00,51.4,45.1,29.97,SSE,159,0.0,5.0,79,0.00,,---,0.00,VWS V14.01,2013-10-22 03:56:00,